| time (UTC) | temp F | wind direction | speed MPH | gust MPH | rain 1hr in | rain 24hr in | rain mn in | humidity % | barometer mb |
| 20260504100357 | 58 | 190 | 0.0 | 0.0 | 0.00 | 0.00 | 0.00 | 45 | 1013.2 |
| 20260504081607 | 60 | 190 | 0.0 | 0.0 | 0.00 | 0.00 | 0.00 | 53 | 1013.8 |
| 20260504081337 | 60 | 190 | 0.0 | 0.0 | 0.00 | 0.00 | 0.00 | 52 | 1013.8 |
| 20260504080839 | 60 | 190 | 0.0 | 1.0 | 0.00 | 0.00 | 0.00 | 52 | 1013.8 |
| 20260504080108 | 60 | 190 | 1.0 | 4.0 | 0.00 | 0.00 | 0.00 | 53 | 1013.9 |
| 20260504070326 | 61 | 190 | 0.0 | 0.0 | 0.00 | 0.00 | 0.00 | 59 | 1014.9 |
| 20260504050534 | 62 | 190 | 1.0 | 4.0 | 0.00 | 0.00 | 0.00 | 66 | 1015.9 |
| 20260504050258 | 62 | 190 | 1.0 | 5.0 | 0.00 | 0.00 | 0.00 | 66 | 1015.9 |
| 20260504045528 | 62 | 190 | 1.0 | 5.0 | 0.00 | 0.00 | 0.00 | 66 | 1016.0 |
| 20260504045031 | 62 | 190 | 0.0 | 0.0 | 0.00 | 0.00 | 0.00 | 67 | 1016.1 |
| 20260504044531 | 62 | 190 | 0.0 | 2.0 | 0.00 | 0.00 | 0.00 | 67 | 1016.0 |
| 20260504044023 | 63 | 190 | 0.0 | 3.0 | 0.00 | 0.00 | 0.00 | 68 | 1016.1 |
| 20260504043522 | 63 | 190 | 1.0 | 3.0 | 0.00 | 0.00 | 0.00 | 68 | 1016.1 |
| 20260504043027 | 63 | 190 | 1.0 | 3.0 | 0.00 | 0.00 | 0.00 | 68 | 1016.2 |
| 20260504042524 | 63 | 190 | 1.0 | 3.0 | 0.00 | 0.00 | 0.00 | 68 | 1016.2 |
| 20260504042024 | 63 | 190 | 1.0 | 3.0 | 0.00 | 0.00 | 0.00 | 68 | 1016.2 |
| 20260504041519 | 64 | 190 | 1.0 | 5.0 | 0.00 | 0.00 | 0.00 | 68 | 1016.1 |
| 20260504041020 | 64 | 190 | 2.0 | 5.0 | 0.00 | 0.00 | 0.00 | 68 | 1016.1 |
| 20260504040528 | 64 | 190 | 2.0 | 5.0 | 0.00 | 0.00 | 0.00 | 68 | 1016.2 |
| 20260504040024 | 64 | 190 | 2.0 | 4.0 | 0.00 | 0.00 | 0.00 | 68 | 1016.2 |
| 20260504035519 | 64 | 190 | 1.0 | 4.0 | 0.00 | 0.00 | 0.00 | 68 | 1016.3 |
| 20260504035023 | 64 | 190 | 1.0 | 4.0 | 0.00 | 0.00 | 0.00 | 69 | 1016.3 |
| 20260504034516 | 64 | 190 | 2.0 | 4.0 | 0.00 | 0.00 | 0.00 | 69 | 1016.3 |
| 20260504034015 | 64 | 190 | 2.0 | 5.0 | 0.00 | 0.00 | 0.00 | 69 | 1016.4 |
| 20260504033523 | 64 | 190 | 2.0 | 5.0 | 0.00 | 0.00 | 0.00 | 69 | 1016.4 |
| 20260504033015 | 65 | 190 | 2.0 | 5.0 | 0.00 | 0.00 | 0.00 | 69 | 1016.3 |
| 20260504032515 | 65 | 190 | 3.0 | 6.0 | 0.00 | 0.00 | 0.00 | 69 | 1016.2 |
| 20260504032258 | 65 | 190 | 2.0 | 7.0 | 0.00 | 0.00 | 0.00 | 69 | 1016.1 |
| 20260504031743 | 64 | 190 | 1.0 | 7.0 | 0.00 | 0.00 | 0.00 | 69 | 1016.0 |
| 20260504031011 | 65 | 190 | 0.0 | 3.0 | 0.00 | 0.00 | 0.00 | 69 | 1016.0 |
| 20260504030516 | 65 | 190 | 1.0 | 3.0 | 0.00 | 0.00 | 0.00 | 69 | 1016.1 |
| 20260504030017 | 65 | 190 | 2.0 | 4.0 | 0.00 | 0.00 | 0.00 | 69 | 1016.0 |
| 20260504025511 | 65 | 190 | 2.0 | 4.0 | 0.00 | 0.00 | 0.00 | 68 | 1016.0 |
| 20260504025243 | 65 | 190 | 1.0 | 4.0 | 0.00 | 0.00 | 0.00 | 68 | 1016.0 |
| 20260504024507 | 65 | 190 | 0.0 | 0.0 | 0.00 | 0.00 | 0.00 | 67 | 1015.8 |
| 20260504024004 | 65 | 190 | 0.0 | 0.0 | 0.00 | 0.00 | 0.00 | 67 | 1015.8 |
| 20260504023502 | 65 | 190 | 0.0 | 0.0 | 0.00 | 0.00 | 0.00 | 66 | 1015.7 |
| 20260504023006 | 65 | 190 | 0.0 | 3.0 | 0.00 | 0.00 | 0.00 | 66 | 1015.6 |
| 20260504022738 | 66 | 190 | 0.0 | 3.0 | 0.00 | 0.00 | 0.00 | 65 | 1015.5 |
| 20260504021958 | 66 | 190 | 0.0 | 2.0 | 0.00 | 0.00 | 0.00 | 63 | 1015.4 |
| 20260504021502 | 66 | 190 | 0.0 | 0.0 | 0.00 | 0.00 | 0.00 | 63 | 1015.3 |
| 20260504020457 | 67 | 190 | 0.0 | 0.0 | 0.00 | 0.00 | 0.00 | 61 | 1015.4 |
| 20260504015955 | 67 | 190 | 0.0 | 0.0 | 0.00 | 0.00 | 0.00 | 61 | 1015.3 |
| 20260504015454 | 67 | 190 | 0.0 | 0.0 | 0.00 | 0.00 | 0.00 | 61 | 1015.4 |
| 20260504014954 | 67 | 190 | 0.0 | 0.0 | 0.00 | 0.00 | 0.00 | 60 | 1015.3 |
| 20260504014457 | 68 | 190 | 0.0 | 0.0 | 0.00 | 0.00 | 0.00 | 59 | 1015.2 |
| 20260504013948 | 68 | 190 | 0.0 | 0.0 | 0.00 | 0.00 | 0.00 | 59 | 1015.3 |
| 20260504013719 | 69 | 190 | 0.0 | 0.0 | 0.00 | 0.00 | 0.00 | 58 | 1015.2 |
| 20260504012946 | 69 | 190 | 0.0 | 0.0 | 0.00 | 0.00 | 0.00 | 58 | 1015.2 |
| 20260504012445 | 69 | 190 | 0.0 | 0.0 | 0.00 | 0.00 | 0.00 | 57 | 1015.2 |
| 20260504012217 | 69 | 190 | 0.0 | 0.0 | 0.00 | 0.00 | 0.00 | 57 | 1015.1 |
| 20260504011449 | 70 | 190 | 0.0 | 0.0 | 0.00 | 0.00 | 0.00 | 56 | 1015.1 |
| 20260504010942 | 70 | 190 | 0.0 | 0.0 | 0.00 | 0.00 | 0.00 | 55 | 1015.1 |
| 20260504010445 | 71 | 190 | 0.0 | 0.0 | 0.00 | 0.00 | 0.00 | 55 | 1015.1 |
| 20260504005946 | 71 | 190 | 0.0 | 0.0 | 0.00 | 0.00 | 0.00 | 54 | 1015.0 |
| 20260504005447 | 71 | 190 | 0.0 | 0.0 | 0.00 | 0.00 | 0.00 | 53 | 1015.1 |
| 20260504004942 | 72 | 190 | 0.0 | 0.0 | 0.00 | 0.00 | 0.00 | 53 | 1015.2 |
| 20260504004440 | 72 | 190 | 0.0 | 0.0 | 0.00 | 0.00 | 0.00 | 52 | 1015.3 |
| 20260504003935 | 72 | 190 | 0.0 | 0.0 | 0.00 | 0.00 | 0.00 | 52 | 1015.1 |
| 20260504003443 | 73 | 190 | 0.0 | 0.0 | 0.00 | 0.00 | 0.00 | 51 | 1015.2 |
| 20260504002939 | 73 | 190 | 0.0 | 0.0 | 0.00 | 0.00 | 0.00 | 50 | 1015.3 |
| 20260504002436 | 73 | 190 | 0.0 | 0.0 | 0.00 | 0.00 | 0.00 | 50 | 1015.3 |
| 20260504002210 | 74 | 190 | 0.0 | 0.0 | 0.00 | 0.00 | 0.00 | 49 | 1015.4 |
| 20260504001433 | 74 | 190 | 0.0 | 2.0 | 0.00 | 0.00 | 0.00 | 50 | 1015.5 |
| 20260504000933 | 74 | 190 | 0.0 | 3.0 | 0.00 | 0.00 | 0.00 | 48 | 1015.5 |
| 20260504000436 | 74 | 190 | 1.0 | 6.0 | 0.00 | 0.00 | 0.00 | 47 | 1015.6 |
| 20260503235924 | 74 | 190 | 2.0 | 6.0 | 0.00 | 0.00 | 0.00 | 46 | 1015.6 |
| 20260503235425 | 74 | 190 | 3.0 | 6.0 | 0.00 | 0.00 | 0.00 | 45 | 1015.5 |
| 20260503234942 | 75 | 190 | 3.0 | 7.0 | 0.00 | 0.00 | 0.00 | 44 | 1015.5 |
| 20260503234425 | 75 | 190 | 3.0 | 7.0 | 0.00 | 0.00 | 0.00 | 43 | 1015.5 |
| 20260503233919 | 76 | 190 | 4.0 | 8.0 | 0.00 | 0.00 | 0.00 | 43 | 1015.7 |
| 20260503233418 | 76 | 190 | 4.0 | 8.0 | 0.00 | 0.00 | 0.00 | 43 | 1015.6 |
| 20260503232918 | 76 | 190 | 4.0 | 8.0 | 0.00 | 0.00 | 0.00 | 43 | 1015.5 |
| 20260503232654 | 76 | 190 | 5.0 | 10.0 | 0.00 | 0.00 | 0.00 | 40 | 1015.7 |
| 20260503231919 | 76 | 190 | 5.0 | 10.0 | 0.00 | 0.00 | 0.00 | 41 | 1015.7 |
| 20260503231427 | 77 | 190 | 4.0 | 10.0 | 0.00 | 0.00 | 0.00 | 42 | 1015.8 |
| 20260503230922 | 77 | 190 | 4.0 | 9.0 | 0.00 | 0.00 | 0.00 | 44 | 1015.7 |
| 20260503225916 | 77 | 190 | 5.0 | 12.0 | 0.00 | 0.00 | 0.00 | 42 | 1015.8 |
| 20260503225412 | 77 | 190 | 5.0 | 11.0 | 0.00 | 0.00 | 0.00 | 43 | 1015.8 |
| 20260503224913 | 77 | 190 | 5.0 | 11.0 | 0.00 | 0.00 | 0.00 | 43 | 1016.0 |
| 20260503223906 | 78 | 190 | 4.0 | 8.0 | 0.00 | 0.00 | 0.00 | 44 | 1016.0 |
| 20260503223406 | 77 | 190 | 5.0 | 11.0 | 0.00 | 0.00 | 0.00 | 44 | 1016.0 |
| 20260503222910 | 77 | 190 | 5.0 | 11.0 | 0.00 | 0.00 | 0.00 | 44 | 1015.9 |
| 20260503222406 | 78 | 190 | 5.0 | 10.0 | 0.00 | 0.00 | 0.00 | 43 | 1016.1 |
| 20260503221907 | 78 | 190 | 5.0 | 10.0 | 0.00 | 0.00 | 0.00 | 43 | 1016.1 |
| 20260503221403 | 78 | 190 | 5.0 | 9.0 | 0.00 | 0.00 | 0.00 | 44 | 1016.2 |
| 20260503220902 | 78 | 190 | 5.0 | 11.0 | 0.00 | 0.00 | 0.00 | 44 | 1016.3 |
| 20260503220400 | 78 | 190 | 5.0 | 11.0 | 0.00 | 0.00 | 0.00 | 43 | 1016.3 |
| 20260503215903 | 78 | 190 | 5.0 | 9.0 | 0.00 | 0.00 | 0.00 | 44 | 1016.4 |
| 20260503215633 | 78 | 190 | 5.0 | 9.0 | 0.00 | 0.00 | 0.00 | 45 | 1016.3 |
| 20260503214859 | 78 | 190 | 4.0 | 7.0 | 0.00 | 0.00 | 0.00 | 43 | 1016.5 |
| 20260503214401 | 78 | 190 | 4.0 | 9.0 | 0.00 | 0.00 | 0.00 | 43 | 1016.8 |
| 20260503213856 | 79 | 190 | 5.0 | 10.0 | 0.00 | 0.00 | 0.00 | 41 | 1016.8 |
| 20260503213355 | 79 | 190 | 5.0 | 10.0 | 0.00 | 0.00 | 0.00 | 43 | 1016.7 |
| 20260503213132 | 80 | 190 | 3.0 | 9.0 | 0.00 | 0.00 | 0.00 | 44 | 1016.7 |
| 20260503212354 | 79 | 190 | 3.0 | 7.0 | 0.00 | 0.00 | 0.00 | 46 | 1016.8 |
| 20260503211856 | 79 | 190 | 5.0 | 8.0 | 0.00 | 0.00 | 0.00 | 41 | 1016.9 |
| 20260503211401 | 78 | 190 | 5.0 | 9.0 | 0.00 | 0.00 | 0.00 | 43 | 1016.8 |
| 20260503210859 | 79 | 190 | 6.0 | 11.0 | 0.00 | 0.00 | 0.00 | 43 | 1017.1 |
| 20260503210356 | 80 | 190 | 5.0 | 11.0 | 0.00 | 0.00 | 0.00 | 41 | 1017.3 |
| 20260503205354 | 80 | 190 | 4.0 | 11.0 | 0.00 | 0.00 | 0.00 | 41 | 1017.3 |
| 20260503204854 | 79 | 190 | 4.0 | 11.0 | 0.00 | 0.00 | 0.00 | 43 | 1017.3 |
| 20260503204354 | 79 | 190 | 4.0 | 11.0 | 0.00 | 0.00 | 0.00 | 41 | 1017.5 |
| 20260503203854 | 80 | 190 | 3.0 | 7.0 | 0.00 | 0.00 | 0.00 | 41 | 1017.6 |
| 20260503203626 | 79 | 190 | 4.0 | 10.0 | 0.00 | 0.00 | 0.00 | 41 | 1017.7 |
| 20260503202859 | 80 | 190 | 4.0 | 10.0 | 0.00 | 0.00 | 0.00 | 42 | 1017.8 |
| 20260503202352 | 80 | 190 | 4.0 | 10.0 | 0.00 | 0.00 | 0.00 | 43 | 1017.8 |
| 20260503201856 | 79 | 190 | 5.0 | 10.0 | 0.00 | 0.00 | 0.00 | 42 | 1017.9 |
| 20260503201352 | 79 | 190 | 4.0 | 12.0 | 0.00 | 0.00 | 0.00 | 42 | 1017.9 |
| 20260503200852 | 79 | 190 | 4.0 | 12.0 | 0.00 | 0.00 | 0.00 | 44 | 1018.0 |
| 20260503200354 | 79 | 190 | 4.0 | 9.0 | 0.00 | 0.00 | 0.00 | 41 | 1018.0 |
| 20260503195850 | 79 | 190 | 6.0 | 12.0 | 0.00 | 0.00 | 0.00 | 41 | 1018.1 |
| 20260503195348 | 79 | 190 | 5.0 | 12.0 | 0.00 | 0.00 | 0.00 | 41 | 1018.1 |
| 20260503194849 | 79 | 190 | 4.0 | 9.0 | 0.00 | 0.00 | 0.00 | 42 | 1018.2 |
| 20260503194619 | 79 | 190 | 5.0 | 7.0 | 0.00 | 0.00 | 0.00 | 42 | 1018.2 |
| 20260503193846 | 79 | 190 | 5.0 | 11.0 | 0.00 | 0.00 | 0.00 | 43 | 1018.4 |
| 20260503193344 | 79 | 190 | 5.0 | 11.0 | 0.00 | 0.00 | 0.00 | 43 | 1018.6 |
| 20260503192844 | 79 | 190 | 3.0 | 8.0 | 0.00 | 0.00 | 0.00 | 42 | 1018.6 |
| 20260503192606 | 79 | 190 | 4.0 | 9.0 | 0.00 | 0.00 | 0.00 | 43 | 1018.6 |
| 20260503191832 | 79 | 190 | 4.0 | 12.0 | 0.00 | 0.00 | 0.00 | 42 | 1018.8 |
| 20260503190833 | 79 | 190 | 3.0 | 9.0 | 0.00 | 0.00 | 0.00 | 42 | 1018.9 |
| 20260503190333 | 79 | 190 | 5.0 | 11.0 | 0.00 | 0.00 | 0.00 | 43 | 1019.0 |
| 20260503185834 | 79 | 190 | 3.0 | 11.0 | 0.00 | 0.00 | 0.00 | 44 | 1019.0 |
| 20260503185605 | 79 | 190 | 2.0 | 6.0 | 0.00 | 0.00 | 0.00 | 45 | 1019.0 |
| 20260503184829 | 79 | 190 | 4.0 | 6.0 | 0.00 | 0.00 | 0.00 | 43 | 1019.1 |
| 20260503184329 | 79 | 190 | 5.0 | 11.0 | 0.00 | 0.00 | 0.00 | 44 | 1019.2 |
| 20260503183829 | 78 | 190 | 4.0 | 11.0 | 0.00 | 0.00 | 0.00 | 42 | 1019.4 |
| 20260503183328 | 78 | 190 | 3.0 | 8.0 | 0.00 | 0.00 | 0.00 | 44 | 1019.4 |
| 20260503183100 | 78 | 190 | 3.0 | 9.0 | 0.00 | 0.00 | 0.00 | 41 | 1019.4 |
| 20260503182329 | 78 | 190 | 4.0 | 9.0 | 0.00 | 0.00 | 0.00 | 44 | 1019.5 |
| 20260503181824 | 78 | 190 | 4.0 | 9.0 | 0.00 | 0.00 | 0.00 | 43 | 1019.7 |
| 20260503181557 | 78 | 190 | 3.0 | 9.0 | 0.00 | 0.00 | 0.00 | 43 | 1019.6 |
| 20260503180825 | 78 | 190 | 2.0 | 6.0 | 0.00 | 0.00 | 0.00 | 46 | 1019.7 |
| 20260503180323 | 78 | 190 | 3.0 | 12.0 | 0.00 | 0.00 | 0.00 | 45 | 1019.7 |
| 20260503175824 | 78 | 190 | 5.0 | 12.0 | 0.00 | 0.00 | 0.00 | 45 | 1019.9 |
| 20260503175326 | 78 | 190 | 3.0 | 11.0 | 0.00 | 0.00 | 0.00 | 43 | 1020.0 |
| 20260503174820 | 78 | 190 | 2.0 | 6.0 | 0.00 | 0.00 | 0.00 | 47 | 1020.0 |
| 20260503174319 | 78 | 190 | 3.0 | 10.0 | 0.00 | 0.00 | 0.00 | 44 | 1020.2 |
| 20260503173821 | 78 | 190 | 3.0 | 10.0 | 0.00 | 0.00 | 0.00 | 46 | 1020.2 |
| 20260503173319 | 78 | 190 | 3.0 | 10.0 | 0.00 | 0.00 | 0.00 | 46 | 1020.3 |
| 20260503172822 | 78 | 190 | 3.0 | 7.0 | 0.00 | 0.00 | 0.00 | 47 | 1020.4 |
| 20260503172317 | 78 | 190 | 3.0 | 6.0 | 0.00 | 0.00 | 0.00 | 44 | 1020.5 |
| 20260503171817 | 77 | 190 | 3.0 | 8.0 | 0.00 | 0.00 | 0.00 | 48 | 1020.6 |
| 20260503171312 | 77 | 190 | 3.0 | 8.0 | 0.00 | 0.00 | 0.00 | 44 | 1020.6 |
| 20260503170814 | 78 | 190 | 2.0 | 7.0 | 0.00 | 0.00 | 0.00 | 48 | 1020.7 |
| 20260503170312 | 77 | 190 | 3.0 | 8.0 | 0.00 | 0.00 | 0.00 | 47 | 1020.7 |
| 20260503150742 | 72 | 190 | 4.0 | 6.0 | 0.00 | 0.00 | 0.00 | 58 | 1020.8 |
| 20260503150242 | 72 | 190 | 3.0 | 7.0 | 0.00 | 0.00 | 0.00 | 60 | 1020.8 |
| 20260503140229 | 68 | 190 | 2.0 | 5.0 | 0.00 | 0.00 | 0.00 | 65 | 1020.6 |
| 20260503130713 | 60 | 190 | 0.0 | 2.0 | 0.00 | 0.00 | 0.00 | 1 | 1020.1 |
| 20260503130207 | 59 | 190 | 1.0 | 3.0 | 0.00 | 0.00 | 0.00 | 1 | 1020.0 |
| 20260503110703 | 53 | 190 | 0.0 | 0.0 | 0.00 | 0.00 | 0.00 | 1 | 1019.0 |